THORAD DELTA 1 DEB, 9795

Orbit data source: Space-Track

THORAD DELTA 1 DEB, 9795 is space debris in SSO originally from a launch on Fri, 15 Nov 1974 UTC launched from the Air Force Western Test Range (AFWTR). Debris objects in space refer to the collection of defunct objects orbiting the Earth. Examples of debris include non-operational satellites, rocket bodies, and fragments generated from explosions, collisions, or faulty payload assembly.

Loading next visibility...
Identifier
9795, 1974-089EA
Orbit
SSO
Country
Flag of USUS
Related business
Manufacturer
Unknown
Mission
Spacecraft
Bus & Motor
Unknown
Mass
Unknown
Launch date (UTC)
1974-11-15 (51 years ago)
Launch vehicle
Unknown
Launch site
Air Force Western Test Range (AFWTR)
Object type
Payload
Rocket body
Debris
Shape & HBR
Unknown shape, 0.1 m
Radar Cross Section
Small (<0.1 m²)

Expand to show TLE details & history
Last TLE update: 2 days ago

TLE from 2 days ago
0 THORAD DELTA 1 DEB
1 09795U 74089EA  26070.89607988  .00000283  00000-0  15286-2 0  9995
2 09795 102.0239  49.9151 0297677  63.9268 352.6795 12.63443489360303
Epoch: 2026-03-11T21:30Z
TLE epoch observation values (Epoch: 2026-03-11T21:30:21.301Z)
Latitude
54.4227°
Longitude
-99.45899°
Altitude
1,187.689 km
Speed
7.372 km/s
True Right ascension
02h 10m 44s
True Declination
54° 16' 09"
Sunlit
Object was in daylight at epoch
Visualization orbit readout
Latitude
Unknown
Longitude
Unknown
Altitude
Unknown
Speed
Unknown
Apparent Right ascension
Unknown
Apparent Declination
Unknown
Sunlit
N/A
Visualization observer readout
Local Sidereal Time
10:24:33
Azimuth
Unknown
Elevation
Unknown
Doppler factor
Unknown
Orbital elements
Apogee altitude
1,638.031 km
Perigee altitude
1,174.581 km
Semi-major axis
7,784.443 km
Eccentricity
0.02977
Inclination
102.0239°
RAAN
49.9151°
Arg. of periapsis
63.9268°
True anomaly
352.22823°
Mean anomaly
352.6795°
Eccentric anomaly
352.45557°
Mean motion
3.16011 °/min
Orbital period
113.92 mins
BSTAR
0.0015286
Loading maneuver chart data...
Computing Atmospheric mass density...

Documentation

Showing up to 5 results
|